Regional Weather Roundup
Issued by NWS

Home | Current Version | Previous Version | Graphics & Text | Print | Product List | Glossary On
Versions: 1 2 3 4 5 6 7 8 9 10 11 12 13 14 15 16 17 18 19 20 21 22 23 24 25 26 27 28 29 30 31 32 33 34 35 36 37 38 39 40 41 42 43 44 45 46 47 48 49 50
395
ASUS43 KDTX 241301
RWRMI
MICHIGAN HOURLY REGIONAL WEATHER ROUNDUP
NATIONAL WEATHER SERVICE DETROIT/PONTIAC MI
900 AM EDT TUE APR 24 2018

NOTE: "FAIR" INDICATES FEW OR NO CLOUDS BELOW 12,000 FEET WITH NO
SIGNIFICANT WEATHER AND/OR OBSTRUCTION TO VISIBILITY.

MIZ047>049-052>055-059>063-066>070-074>076-081>083-241400-
SOUTHEAST LOWER MICHIGAN

CITY           SKY/WX    TMP DP  RH WIND       PRES   REMARKS
ADRIAN         CLOUDY    52  48  86 E13       30.11S
ALMA           CLOUDY    55  48  80 SE6       30.13R
ANN ARBOR      CLOUDY    52  49  89 E12       30.12F
BAD AXE        CLOUDY    58  45  61 SE5       30.15S
CARO           CLOUDY    57  46  66 S13G20    30.14S
DETROIT CITY   CLOUDY    54  43  66 E7        30.14F
DETROIT        LGT RAIN  54  46  74 E5        30.14F
FLINT          LGT RAIN  54  48  80 SE7       30.13S
GROSSE ILE     CLOUDY    52  46  80 E3        30.13S
HILLSDALE      CLOUDY    52  46  82 E17       30.08S
HOWELL         CLOUDY    54  48  80 SE16      30.12F

CITY           SKY/WX    TMP DP  RH WIND       PRES   REMARKS
JACKSON        CLOUDY    53  48  83 E10       30.10S
LAMBERTVILLE   CLOUDY    52  48  85 E8        30.11S
LANSING        CLOUDY    54  49  83 SE8       30.11F
LAPEER         CLOUDY    54  46  74 SE5       30.14F
MASON          CLOUDY    54  47  77 SE6       30.11S
MONROE         DRIZZLE   50  48  93 E7        30.12F
MT. CLEMENS    CLOUDY    53  52  98 E5        30.14R
PONTIAC        CLOUDY    56  46  69 SE15G21   30.12F
PORT HOPE        N/A     48  46  93 SE3       30.14R
PORT HURON     CLOUDY    55  46  71 E6        30.16S
TRI CITIES     CLOUDY    56  47  71 SE7       30.14R
MIDLAND        CLOUDY    55  47  74 CALM      30.13R
TROY           CLOUDY    56  44  62 E5        30.15F
SAGINAW HB     CLOUDY    55  46  71 SE8       30.13S
$$
MIZ043>046-050>051-056>058-064>065-071>073-077>080-241400-
SOUTHWEST LOWER MICHIGAN

CITY           SKY/WX    TMP DP  RH WIND       PRES   REMARKS
BATTLE CREEK   CLOUDY    53  49  86 E7        30.09S
BENTON HARBOR  CLOUDY    55  48  77 E8        30.07R
BIG RAPIDS     CLOUDY    51  43  75 CALM      30.11R
COLDWATER      CLOUDY    54  49  82 E6        30.07F
HOLLAND        CLOUDY    54  48  80 SE8       30.09S
GRAND RAPIDS   CLOUDY    54  48  80 SE10      30.10R
IONIA          CLOUDY    54  47  78 E6        30.10R
KALAMAZOO      CLOUDY    55  48  77 VRB5      30.08F
LUDINGTON      PTSUNNY   51  40  68 CALM      30.10S
MARSHALL       CLOUDY    53  47  82 E5        30.09S
MOUNT PLEASANT PTSUNNY   53  45  75 E3        30.12R
MUSKEGON       CLOUDY    56  46  69 SE7       30.09S
SOUTH HAVEN    CLOUDY    55  47  77 E5        30.07S
$$
MIZ016>042-241400-
NORTHERN LOWER MICHIGAN

CITY           SKY/WX    TMP DP  RH WIND       PRES   REMARKS
ALPENA         FAIR      42  33  70 CALM      30.13S
BEAVER ISLAND  FAIR      37  33  87 CALM      30.11S
BELLAIRE       FAIR      43  34  71 CALM      30.12S
CADILLAC       PTSUNNY   49  40  69 CALM      30.11S
CHARLEVOIX     FAIR      41  34  75 W3        30.15R
FRANKFORT      FAIR      47  38  69 CALM      30.10S
GAYLORD        FAIR      44  36  73 S6        30.11S
GRAYLING       CLOUDY    45  34  65 CALM      30.12
HARBOR SPRINGS FAIR      44  32  62 CALM      30.12R
HOUGHTON LAKE  CLOUDY    52  41  66 S3        30.13S
MANISTEE       FAIR      50  38  63 NE3       30.11R
OSCODA         CLOUDY    45  33  62 CALM      30.14S
PELLSTON       FAIR      40  31  70 CALM      30.12R
ROGERS CITY    FAIR      44  31  59 S5        30.13R
TRAVERSE CITY  CLOUDY    51  39  63 CALM      30.10S
$$
MIZ007>008-015-241400-
EASTERN UPPER MICHIGAN

CITY           SKY/WX    TMP DP  RH WIND       PRES   REMARKS
KINROSS        FAIR      39  25  57 E3        30.13R
MACKINAC ISLAN FAIR      43  32  65 NE5       30.11S
NEWBERRY       FAIR      39  25  58 CALM      30.11S
S. S. MARIE    FAIR      43  27  53 CALM      30.12S
MUNISING         N/A     40  31  70 NE7       30.12R
$$
MIZ004>006-011>014-085-241400-
CENTRAL UPPER MICHIGAN

CITY           SKY/WX    TMP DP  RH WIND       PRES   REMARKS
MANISTIQUE     FAIR      41  28  58 CALM      30.11S
ESCANABA       FAIR      44  29  55 CALM      30.11S
MENOMINEE      FAIR      38  35  89 CALM      30.11S
SAWYER-GWINN   SUNNY     43  30  61 N14       30.12R
$$
MIZ001>003-009>011-084-241400-
WESTERN UPPER MICHIGAN

CITY           SKY/WX    TMP DP  RH WIND       PRES   REMARKS
IRON MOUNTAIN  FAIR      44  27  51 NW6       30.10R
HOUGHTON       FAIR      45  28  51 NE6       30.15R
COPPER HARBOR    N/A     41  30  65 N3        30.15R
IRONWOOD       FAIR      44  30  57 NE7       30.17R
$$

ABBREVIATIONS USED IN REMARKS
   TC - TEMPERATURE IN CELSIUS
  WCI - WIND CHILL INDEX
   HX - HEAT INDEX
  VSB - VISIBILITY





USA.gov is the U.S. government's official web portal to all federal, state and local government web resources and services.